Vertical_Velocity
3 1 -2 -14 -3 1 -2 5 6 24 10 -2 -3 1 -5 -8 4 -9 0 -2 2 -1 -1 3 1 2 -2 2 4 4 0 3 1 -1 -0 3 4 1 -0 0 -1 0 1 0
2 -5 4 36 14 -6 12 -4 2 -5 -6 -5 -3 -8 -8 -5 -9 -6 -6 -6 -2 3 -7 -4 3 0 3 1 2 -1 -1 2 0 2 2 1 2 0 -0 -2 1 -1 -0 -1
-4 -11 9 11 -3 3 6 -13 -8 -7 -3 -3 4 -3 -5 -5 -1 -5 -5 -11 -2 -4 1 -4 -1 0 -0 -1 4 1 -2 1 6 1 -0 1 -1 -1 1 -2 -1 -0 -1 1
-4 -1 2 -2 -2 -1 5 15 -5 -4 -4 -9 -12 -5 -1 -2 -1 -8 8 3 3 -3 -3 -3 -1 3 0 -1 0 2 4 2 -1 1 1 1 -1 0 -3 3 1 1 2 0
-4 7 -4 5 -3 3 9 -1 -1 -2 -3 15 2 7 -19 -3 1 1 1 -3 5 10 8 -13 -2 1 -1 -0 2 -3 0 -0 -0 0 0 -1 -0 1 1 1 -1 -1 0 -1
-4 -3 -2 14 14 12 -1 -7 -4 -4 7 6 -11 2 -9 19 -3 3 -1 -4 -2 -3 3 2 -5 -4 -1 3 2 0 -1 2 2 1 1 0 -0 0 -0 -0 0 -1 0 1
4 2 0 -2 2 0 2 3 4 6 4 -4 -1 12 -17 3 -2 -4 -4 5 3 -2 -1 9 0 1 -1 3 4 2 -1 -1 -1 -2 -1 -1 -1 -0 -2 1 -1 -1 -1 -0
-1 -2 8 3 6 -7 6 -13 -5 -2 -2 -5 -5 -5 -5 -2 -7 -1 -2 -2 -1 2 -4 6 5 3 6 0 2 0 -2 -2 1 2 -1 3 -2 -1 -1 -1 -2 -3 -3 -1
-4 -2 0 -0 6 9 7 22 -3 2 -2 0 -1 -10 -1 -7 -0 -2 -4 0 3 1 3 -7 20 -1 6 3 1 1 -2 -6 1 2 -3 -1 -2 -2 -0 -1 -2 -1 -1 -2
1 -6 -3 -0 0 0 -5 7 -1 -5 1 0 1 -1 13 5 2 0 -1 -4 -3 2 -1 -1 1 -7 7 5 0 1 3 4 1 -1 -3 -1 -1 -1 -3 -3 -2 -2 -2 -1
-7 3 -0 4 -4 -1 -5 -4 -3 5 -5 3 1 5 20 -5 3 -2 -4 -4 -4 -1 3 -2 1 4 -2 -3 -12 4 6 2 3 0 -1 -1 -1 -0 -2 -1 -1 -1 -1 -0
-0 7 -0 0 4 -2 2 9 -1 3 -1 -3 1 6 2 -5 1 2 0 -3 -3 -3 -1 2 2 -2 1 -1 2 -10 -10 -0 0 -1 -2 -1 -2 -1 0 -0 0 -1 -1 -1
3 1 -1 1 -1 -6 -7 -4 -2 6 1 -3 4 3 1 -5 -1 -2 -2 1 -3 -1 -4 -4 1 1 -0 4 5 4 5 4 -0 -1 -0 -2 -3 -2 1 1 0 -2 -1 1
-1 3 1 0 4 2 -6 -5 -1 4 1 -12 -13 -16 10 -7 0 -3 -0 -4 0 -4 1 -4 -5 0 -1 -1 3 2 0 -1 -2 -2 -1 -5 -3 -1 0 -1 -2 -3 -1 1
2 1 -1 1 1 -2 -2 -1 -0 1 -11 12 -15 3 -1 0 6 11 23 -10 2 -4 -5 -1 -3 -4 -5 -6 -3 -1 2 2 0 -2 -1 -3 -4 -1 -1 -1 -1 -1 -2 -1
-3 -2 1 -2 -3 0 -4 -2 -1 -2 -2 -1 -5 -12 -5 -2 3 4 -7 1 -2 -6 -5 -2 -1 -3 -4 -1 -1 -1 -0 -1 3 -1 -5 -2 -2 -2 -2 -1 1 4 -1 -3
1 2 -0 3 -2 -1 -1 -11 -2 3 -2 4 2 -12 4 0 0 2 -0 -2 -3 -2 4 2 -1 -0 -0 1 2 1 1 -2 -2 -0 3 -0 2 -1 3 1 2 -1 -0 3
0 -0 -0 2 1 2 4 2 1 -1 2 1 -4 0 -1 1 -2 -1 1 3 4 1 1 -1 1 3 1 1 -0 -3 -2 -1 -2 1 -0 2 -3 -3 0 1 -5 -3 1 3
2 2 3 0 2 -15 -13 -6 2 -1 -4 -6 -0 -1 -2 -3 -2 6 2 0 -1 2 -2 -0 3 3 3 1 2 1 2 1 1 -1 -1 -1 -2 -1 -2 1 2 -2 -1 4
-0 2 3 4 3 -0 1 -2 -1 -2 -4 -3 1 1 -2 -2 -4 9 2 0 2 -0 3 1 4 2 2 -1 2 0 1 0 0 -2 -2 -2 -1 -2 -2 -3 -1 2 -1 -3
-5 -2 -3 -0 1 -9 3 -5 -2 0 7 -1 -0 -1 0 -2 -4 -2 -3 -2 -1 1 3 2 2 3 1 1 -1 -2 -2 -2 -3 -2 -2 -2 -1 -0 0 -0 -2 -2 -1 1
-1 -1 -2 -1 11 -8 -2 2 -2 1 0 -0 -2 -1 -1 -1 -2 -3 -2 -1 -2 2 4 3 1 0 4 3 1 2 -0 -3 -0 -2 -1 -1 -1 -1 -3 -1 -1 -2 -1 1
-7 -6 5 -1 8 -3 2 3 -1 -0 0 -2 -1 -1 -1 1 1 1 1 1 1 1 2 3 3 4 4 2 1 1 -3 -0 -0 1 0 -0 -0 -1 -1 -2 -1 -2 -0 -1
-7 4 -3 2 -2 1 -0 -2 0 2 -1 -0 -1 -1 -2 -2 -0 0 0 0 0 1 2 2 3 1 -0 0 0 -1 -0 0 1 -1 5 1 0 -0 -0 -0 -4 -1 -1 0
12 -2 -4 -5 1 -1 -3 2 3 0 1 1 1 0 0 -0 -1 0 -1 -1 1 -0 -1 -0 1 0 0 0 -0 -0 0 0 0 -2 1 1 1 -1 -2 -1 0 -0 -4 -2
9 8 5 -6 19 1 6 -3 2 1 1 2 1 -1 0 1 -0 -1 1 1 -0 0 -1 3 0 -1 -2 -2 -1 -1 -2 -2 -1 2 2 2 1 1 -0 0 -2 1 2 1
Height
3034 3038 3043 3049 3059 3065 3070 3077 3079 3087 3087 3092 3097 3101 3104 3106 3109 3113 3117 3121 3126 3127 3128 3131 3134 3138 3141 3144 3147 3150 3153 3156 3159 3161 3164 3166 3168 3169 3170 3171 3172 3172 3173 3173
3039 3040 3045 3054 3061 3063 3069 3074 3079 3083 3085 3091 3096 3098 3102 3103 3104 3107 3111 3116 3120 3124 3123 3126 3130 3133 3137 3140 3144 3146 3149 3152 3155 3157 3159 3162 3163 3165 3166 3167 3167 3168 3168 3168
3040 3044 3046 3052 3058 3064 3068 3072 3080 3085 3087 3092 3095 3096 3097 3097 3100 3101 3103 3109 3114 3117 3120 3120 3124 3129 3132 3135 3139 3142 3144 3147 3151 3153 3155 3157 3159 3160 3161 3161 3162 3163 3163 3163
3045 3046 3052 3056 3062 3066 3070 3077 3080 3082 3087 3090 3092 3088 3088 3092 3093 3094 3096 3099 3104 3112 3114 3115 3118 3123 3128 3131 3134 3137 3141 3143 3146 3149 3151 3152 3154 3155 3155 3156 3156 3157 3157 3157
3047 3048 3053 3059 3064 3069 3073 3076 3078 3084 3087 3088 3091 3093 3086 3087 3089 3090 3091 3093 3097 3102 3107 3109 3114 3118 3121 3126 3129 3132 3135 3138 3141 3143 3145 3147 3147 3149 3149 3149 3150 3150 3150 3150
3049 3051 3055 3060 3066 3068 3070 3075 3081 3086 3088 3088 3087 3089 3083 3084 3085 3086 3088 3089 3091 3094 3098 3105 3109 3112 3115 3120 3123 3126 3129 3132 3135 3137 3139 3140 3141 3142 3142 3143 3143 3143 3143 3143
3051 3054 3056 3059 3065 3069 3072 3075 3082 3087 3088 3083 3082 3084 3082 3082 3082 3082 3083 3085 3086 3088 3091 3097 3097 3106 3110 3114 3117 3120 3123 3126 3129 3131 3132 3134 3135 3136 3136 3136 3136 3135 3135 3134
3053 3058 3056 3061 3066 3068 3072 3073 3076 3077 3076 3077 3082 3080 3078 3077 3077 3078 3077 3078 3079 3083 3085 3089 3093 3099 3104 3107 3111 3114 3117 3120 3122 3124 3126 3128 3129 3130 3130 3130 3129 3128 3127 3126
3055 3057 3058 3060 3064 3069 3071 3074 3076 3076 3074 3074 3075 3076 3075 3075 3075 3075 3075 3075 3077 3079 3081 3083 3088 3091 3096 3101 3105 3108 3111 3114 3117 3118 3121 3122 3123 3123 3122 3122 3121 3120 3119 3118
3056 3058 3060 3063 3066 3068 3069 3075 3078 3077 3077 3074 3072 3073 3070 3075 3074 3074 3074 3074 3074 3076 3078 3080 3082 3085 3090 3094 3098 3102 3105 3108 3110 3112 3114 3115 3115 3115 3115 3114 3114 3112 3112 3110
3056 3060 3064 3065 3066 3069 3071 3072 3075 3075 3075 3071 3065 3068 3071 3073 3072 3072 3072 3072 3072 3072 3074 3076 3079 3081 3082 3088 3090 3095 3098 3101 3103 3105 3107 3107 3108 3107 3107 3107 3106 3105 3104 3103
3057 3058 3062 3065 3065 3066 3067 3071 3073 3073 3075 3075 3074 3071 3069 3071 3071 3071 3071 3071 3070 3070 3070 3071 3074 3076 3078 3082 3086 3089 3093 3095 3097 3099 3099 3100 3100 3100 3099 3099 3098 3097 3096 3095
3056 3059 3062 3065 3068 3066 3066 3068 3069 3071 3070 3071 3072 3069 3068 3069 3069 3069 3069 3069 3069 3069 3069 3068 3070 3072 3073 3076 3078 3081 3084 3087 3089 3091 3091 3092 3093 3093 3093 3092 3090 3089 3088 3087
3056 3058 3059 3060 3059 3060 3061 3063 3066 3068 3067 3068 3066 3067 3067 3068 3067 3067 3067 3066 3064 3065 3067 3067 3067 3067 3068 3071 3072 3075 3078 3080 3083 3085 3085 3086 3086 3086 3085 3084 3083 3082 3080 3079
3058 3058 3058 3057 3057 3057 3058 3059 3060 3061 3060 3062 3064 3062 3064 3066 3066 3066 3065 3061 3061 3060 3062 3063 3064 3064 3065 3067 3069 3072 3074 3075 3076 3078 3078 3079 3080 3079 3078 3077 3076 3074 3072 3071
3059 3059 3057 3056 3055 3055 3054 3055 3054 3054 3056 3055 3057 3054 3058 3057 3057 3057 3055 3055 3055 3055 3058 3059 3058 3060 3062 3064 3066 3067 3068 3070 3071 3071 3072 3073 3072 3072 3071 3069 3068 3067 3066 3064
3057 3057 3057 3056 3055 3054 3053 3047 3047 3047 3048 3050 3051 3052 3053 3051 3049 3048 3047 3046 3046 3049 3051 3052 3054 3055 3057 3059 3061 3062 3062 3064 3065 3065 3065 3065 3065 3064 3063 3062 3060 3058 3058 3057
3054 3055 3056 3055 3054 3051 3044 3042 3041 3041 3043 3044 3044 3044 3045 3043 3041 3039 3040 3039 3039 3041 3043 3045 3047 3049 3051 3052 3055 3057 3058 3060 3060 3060 3060 3059 3059 3059 3057 3056 3054 3052 3051 3050
3051 3053 3054 3053 3051 3046 3041 3039 3039 3038 3039 3038 3038 3038 3038 3037 3036 3036 3033 3033 3033 3036 3037 3039 3040 3042 3044 3047 3049 3052 3054 3055 3055 3055 3055 3055 3054 3052 3051 3050 3048 3046 3045 3044
3048 3050 3052 3051 3050 3044 3039 3038 3037 3037 3036 3034 3034 3034 3034 3033 3032 3031 3029 3028 3028 3028 3030 3032 3033 3036 3039 3042 3045 3047 3048 3049 3050 3049 3049 3049 3048 3047 3045 3044 3042 3041 3039 3039
3048 3049 3048 3048 3046 3040 3037 3034 3035 3038 3038 3032 3032 3032 3031 3029 3028 3026 3024 3023 3023 3023 3026 3028 3030 3033 3035 3038 3041 3042 3043 3044 3044 3044 3044 3043 3042 3041 3040 3039 3037 3035 3033 3033
3043 3045 3044 3043 3042 3039 3033 3033 3034 3033 3030 3030 3029 3028 3026 3025 3023 3021 3019 3018 3018 3020 3022 3024 3027 3029 3032 3034 3036 3037 3038 3038 3039 3039 3038 3038 3036 3035 3033 3032 3031 3030 3029 3028
3040 3040 3040 3040 3037 3033 3031 3031 3029 3029 3028 3026 3025 3024 3023 3021 3020 3018 3017 3017 3017 3017 3019 3020 3023 3026 3028 3029 3030 3031 3031 3032 3032 3032 3032 3031 3031 3030 3029 3028 3027 3025 3024 3024
3035 3036 3035 3034 3031 3029 3028 3027 3026 3025 3023 3023 3022 3021 3020 3019 3017 3016 3015 3015 3015 3016 3017 3019 3020 3022 3023 3024 3025 3025 3026 3026 3026 3025 3025 3026 3025 3025 3024 3024 3023 3022 3022 3023
3036 3032 3031 3028 3026 3025 3024 3022 3021 3020 3019 3018 3017 3016 3015 3015 3014 3013 3013 3012 3013 3013 3014 3015 3016 3017 3017 3018 3018 3019 3019 3019 3019 3018 3019 3019 3020 3020 3019 3019 3019 3019 3019 3020
3030 3029 3028 3024 3025 3021 3020 3017 3016 3015 3014 3013 3012 3012 3011 3011 3010 3010 3010 3010 3009 3010 3010 3011 3011 3012 3011 3012 3012 3012 3012 3012 3012 3013 3013 3014 3014 3014 3014 3014 3014 3015 3015 3016